K7DTF Weather Reports


time (UTC)temp
C
wind
direction
speed
KPH
gust
KPH
rain 1hr
cm
rain 24hr
cm
rain mn
cm
humidity
%
barometer
mb
20260505075725 12 162 1.6 8.0 0.00 0.00 0.00 79 1006.3
20260505075219 12 203 0.0 8.0 0.00 0.00 0.00 79 1006.4
20260505074712 12 199 0.0 1.6 0.00 0.00 0.00 79 1006.4
20260505074207 12 199 0.0 3.2 0.00 0.00 0.00 79 1006.4
20260505073701 12 199 0.0 3.2 0.00 0.00 0.00 80 1006.2
20260505073155 12 77 0.0 0.0 0.00 0.00 0.00 79 1006.1
20260505072649 12 77 0.0 0.0 0.00 0.00 0.00 79 1006.0
20260505072143 12 77 0.0 0.0 0.00 0.00 0.00 79 1005.9
20260505071636 12 71 0.0 0.0 0.00 0.00 0.00 79 1005.8
20260505071130 12 76 0.0 0.0 0.00 0.00 0.00 78 1005.8
20260505070625 12 76 0.0 0.0 0.00 0.00 0.00 78 1005.9
20260505070118 12 76 0.0 0.0 0.00 0.00 0.00 77 1005.7
20260505065613 13 76 0.0 0.0 0.00 0.00 0.00 77 1005.7
20260505065107 13 76 0.0 0.0 0.00 0.00 0.00 76 1005.6
20260505064601 13 76 0.0 0.0 0.00 0.00 0.00 76 1005.6
20260505064054 13 76 0.0 0.0 0.00 0.00 0.00 76 1005.6
20260505063549 13 76 0.0 3.2 0.00 0.00 0.00 74 1005.5
20260505063043 14 76 1.6 3.2 0.00 0.00 0.00 73 1005.6
20260505062540 14 69 3.2 4.8 0.00 0.00 0.00 74 1005.6
20260505062039 14 94 1.6 4.8 0.00 0.00 0.00 74 1005.7
20260505062022 14 76 1.6 4.8 0.00 0.00 0.00 74 1005.6
20260505061043 14 76 1.6 4.8 0.00 0.00 0.00 73 1005.6
20260505060539 14 78 1.6 4.8 0.00 0.00 0.00 73 1005.6
20260505060256 14 84 1.6 4.8 0.00 0.00 0.00 73 1005.5
20260505055536 14 85 1.6 3.2 0.00 0.00 0.00 74 1005.4
20260505055036 14 88 1.6 3.2 0.00 0.00 0.00 73 1005.4
20260505054536 15 76 1.6 3.2 0.00 0.00 0.00 73 1005.3
20260505054253 15 106 1.6 3.2 0.00 0.00 0.00 73 1005.2
20260505053801 15 88 1.6 3.2 0.00 0.00 0.00 72 1005.3
20260505053035 15 64 0.0 3.2 0.00 0.00 0.00 72 1005.3
20260505052535 15 102 0.0 4.8 0.00 0.00 0.00 72 1005.3
20260505052033 15 111 1.6 4.8 0.00 0.00 0.00 72 1005.3
20260505051530 15 147 1.6 4.8 0.00 0.00 0.00 71 1005.3
20260505051030 15 93 1.6 4.8 0.00 0.00 0.00 71 1005.3
20260505050529 15 90 1.6 4.8 0.00 0.00 0.00 71 1005.3
20260505041440 17 140 1.6 4.8 0.00 0.00 0.00 68 1005.4
20260505040935 17 116 1.6 6.4 0.00 0.00 0.00 68 1005.3
20260505040428 17 87 1.6 6.4 0.00 0.00 0.00 67 1005.4
20260505035922 18 89 1.6 3.2 0.00 0.00 0.00 67 1005.3
20260505035416 18 101 1.6 9.7 0.00 0.00 0.00 65 1005.2
20260505034910 18 118 3.2 11.3 0.00 0.00 0.00 64 1005.2
20260505034627 18 85 3.2 11.3 0.00 0.00 0.00 64 1005.2
20260505033904 19 108 3.2 6.4 0.00 0.00 0.00 64 1005.0
20260505033403 20 137 1.6 6.4 0.00 0.00 0.00 63 1004.9
20260505032904 20 145 3.2 9.7 0.00 0.00 0.00 62 1004.8
20260505032403 20 112 4.8 12.9 0.00 0.00 0.00 60 1004.7
20260505031904 21 107 6.4 12.9 0.00 0.00 0.00 59 1004.6
20260505031404 21 91 6.4 9.7 0.00 0.00 0.00 58 1004.7
20260505030903 21 93 4.8 9.7 0.00 0.00 0.00 57 1004.6
20260505030403 21 81 3.2 9.7 0.00 0.00 0.00 59 1004.6
20260505025904 22 79 1.6 4.8 0.00 0.00 0.00 59 1004.5
20260505025405 22 97 1.6 3.2 0.00 0.00 0.00 58 1004.5
20260505024904 23 101 1.6 3.2 0.00 0.00 0.00 57 1004.4
20260505024401 23 128 1.6 3.2 0.00 0.00 0.00 56 1004.3
20260505023901 24 110 1.6 3.2 0.00 0.00 0.00 53 1004.4
20260505023632 25 100 1.6 4.8 0.00 0.00 0.00 51 1004.4
20260505023124 25 101 1.6 4.8 0.00 0.00 0.00 46 1004.4
20260505022400 26 129 1.6 3.2 0.00 0.00 0.00 45 1004.4
20260505021900 26 168 0.0 3.2 0.00 0.00 0.00 43 1004.4
20260505021359 27 157 1.6 4.8 0.00 0.00 0.00 41 1004.5
20260505020900 27 158 1.6 4.8 0.00 0.00 0.00 38 1004.4
20260505020400 27 171 1.6 6.4 0.00 0.00 0.00 36 1004.4
20260505020124 27 178 1.6 6.4 0.00 0.00 0.00 35 1004.5
20260505015356 27 197 1.6 4.8 0.00 0.00 0.00 35 1004.5
20260505014856 27 165 3.2 6.4 0.00 0.00 0.00 34 1004.5
20260505014356 27 189 3.2 6.4 0.00 0.00 0.00 36 1004.6
20260505013855 27 257 3.2 6.4 0.00 0.00 0.00 35 1004.7
20260505013355 27 218 3.2 6.4 0.00 0.00 0.00 35 1004.7
20260505012857 27 238 4.8 8.0 0.00 0.00 0.00 35 1004.7
20260505012355 28 220 4.8 8.0 0.00 0.00 0.00 33 1004.8
20260505011857 28 179 6.4 11.3 0.00 0.00 0.00 32 1004.8
20260505011356 28 191 4.8 11.3 0.00 0.00 0.00 33 1004.8
20260505010857 28 193 4.8 9.7 0.00 0.00 0.00 33 1004.9
20260505010615 28 205 4.8 8.0 0.00 0.00 0.00 33 1005.0
20260505005855 28 214 3.2 8.0 0.00 0.00 0.00 34 1005.0
20260505005355 28 185 4.8 8.0 0.00 0.00 0.00 33 1005.0
20260505004858 28 213 4.8 9.7 0.00 0.00 0.00 32 1005.0
20260505004357 29 220 3.2 9.7 0.00 0.00 0.00 31 1005.2
20260505003858 30 134 3.2 8.0 0.00 0.00 0.00 32 1005.0
20260505003356 30 129 3.2 6.4 0.00 0.00 0.00 32 1005.0
20260505002856 30 167 3.2 6.4 0.00 0.00 0.00 34 1005.0
20260505002355 30 100 3.2 8.0 0.00 0.00 0.00 31 1005.2
20260505001856 30 116 3.2 9.7 0.00 0.00 0.00 29 1005.3
20260505001356 30 145 3.2 9.7 0.00 0.00 0.00 31 1005.4
20260505000857 30 270 3.2 9.7 0.00 0.00 0.00 29 1005.3
20260505000355 31 108 4.8 9.7 0.00 0.00 0.00 30 1005.4
20260504235854 30 120 4.8 9.7 0.00 0.00 0.00 28 1005.4
20260504235351 30 74 4.8 14.5 0.00 0.00 0.00 28 1005.4
20260504234851 30 97 4.8 14.5 0.00 0.00 0.00 28 1005.4
20260504234353 30 137 4.8 11.3 0.00 0.00 0.00 28 1005.4
20260504233851 30 90 4.8 11.3 0.00 0.00 0.00 30 1005.4
20260504233614 30 168 3.2 11.3 0.00 0.00 0.00 28 1005.4
20260504232852 30 141 3.2 11.3 0.00 0.00 0.00 32 1005.5
20260504232348 29 260 3.2 11.3 0.00 0.00 0.00 32 1005.5
20260504232341 28 220 3.2 9.7 0.00 0.00 0.00 30 1005.4
20260504231334 29 189 4.8 8.0 0.00 0.00 0.00 29 1005.5
20260504231052 29 162 4.8 11.3 0.00 0.00 0.00 31 1005.5
20260504230321 30 226 4.8 11.3 0.00 0.00 0.00 31 1005.6
20260504225815 30 176 4.8 11.3 0.00 0.00 0.00 28 1005.7
20260504225534 29 171 4.8 11.3 0.00 0.00 0.00 28 1005.7
20260504224804 28 233 4.8 12.9 0.00 0.00 0.00 29 1005.7
20260504224257 28 286 3.2 12.9 0.00 0.00 0.00 28 1005.7
20260504223752 28 191 3.2 8.0 0.00 0.00 0.00 29 1005.9
20260504223245 28 340 3.2 9.7 0.00 0.00 0.00 29 1005.8
20260504222739 28 320 4.8 12.9 0.00 0.00 0.00 29 1005.9
20260504222455 30 305 6.4 12.9 0.00 0.00 0.00 26 1005.9
20260504221725 30 187 4.8 12.9 0.00 0.00 0.00 30 1005.9
20260504221220 29 164 3.2 6.4 0.00 0.00 0.00 29 1006.0
20260504220714 28 196 4.8 11.3 0.00 0.00 0.00 30 1006.1
20260504220208 29 224 4.8 11.3 0.00 0.00 0.00 29 1006.3
20260504215702 29 226 4.8 8.0 0.00 0.00 0.00 31 1006.3
20260504215156 28 219 4.8 8.0 0.00 0.00 0.00 29 1006.4
20260504214649 29 225 6.4 11.3 0.00 0.00 0.00 28 1006.5
20260504214144 29 184 4.8 11.3 0.00 0.00 0.00 33 1006.5
20260504213637 28 166 3.2 8.0 0.00 0.00 0.00 30 1006.6
20260504213132 28 190 4.8 9.7 0.00 0.00 0.00 30 1006.7
20260504212626 28 311 4.8 9.7 0.00 0.00 0.00 32 1006.7
20260504212119 28 212 4.8 9.7 0.00 0.00 0.00 31 1006.7
20260504211834 27 272 4.8 9.7 0.00 0.00 0.00 37 1006.7
20260504211327 27 251 4.8 14.5 0.00 0.00 0.00 31 1006.8
20260504210602 27 296 6.4 14.5 0.00 0.00 0.00 33 1006.8
20260504210055 27 289 4.8 9.7 0.00 0.00 0.00 37 1006.9
20260504205550 27 229 4.8 9.7 0.00 0.00 0.00 35 1006.9
20260504205303 28 171 4.8 11.3 0.00 0.00 0.00 37 1006.9
20260504204538 27 166 4.8 11.3 0.00 0.00 0.00 36 1007.0
20260504204257 27 251 4.8 12.9 0.00 0.00 0.00 36 1007.1
20260504203526 27 252 4.8 12.9 0.00 0.00 0.00 35 1007.1
20260504203019 27 220 4.8 12.9 0.00 0.00 0.00 37 1007.1
20260504202514 26 319 6.4 14.5 0.00 0.00 0.00 37 1007.2
20260504202008 26 303 6.4 14.5 0.00 0.00 0.00 37 1007.2
20260504201502 26 218 3.2 8.0 0.00 0.00 0.00 40 1007.2
20260504200956 27 267 4.8 9.7 0.00 0.00 0.00 38 1007.2
20260504200450 27 193 4.8 9.7 0.00 0.00 0.00 42 1007.2
20260504195944 27 209 4.8 9.7 0.00 0.00 0.00 39 1007.2
20260504195438 26 247 4.8 9.7 0.00 0.00 0.00 38 1007.3
20260504194932 26 184 4.8 12.9 0.00 0.00 0.00 43 1007.3
20260504194425 26 295 6.4 12.9 0.00 0.00 0.00 44 1007.4
20260504193920 26 239 4.8 12.9 0.00 0.00 0.00 44 1007.4
20260504193413 27 280 4.8 9.7 0.00 0.00 0.00 40 1007.3
20260504192907 26 208 4.8 9.7 0.00 0.00 0.00 44 1007.3
20260504192402 25 258 4.8 11.3 0.00 0.00 0.00 42 1007.4
20260504192118 26 187 4.8 11.3 0.00 0.00 0.00 43 1007.4
20260504191349 26 237 4.8 12.9 0.00 0.00 0.00 41 1007.5
20260504190844 25 293 4.8 12.9 0.00 0.00 0.00 45 1007.4
20260504190337 25 293 4.8 11.3 0.00 0.00 0.00 42 1007.5
20260504185831 25 307 4.8 11.3 0.00 0.00 0.00 42 1007.5
20260504185326 25 228 4.8 12.9 0.00 0.00 0.00 40 1007.5
20260504184826 25 193 4.8 12.9 0.00 0.00 0.00 44 1007.6
20260504184551 25 286 4.8 12.9 0.00 0.00 0.00 39 1007.5
20260504183827 25 320 6.4 12.9 0.00 0.00 0.00 41 1007.5
20260504183326 25 213 4.8 12.9 0.00 0.00 0.00 39 1007.6
20260504182825 25 330 4.8 9.7 0.00 0.00 0.00 38 1007.6
20260504182323 25 222 4.8 11.3 0.00 0.00 0.00 39 1007.7
20260504181820 25 247 4.8 11.3 0.00 0.00 0.00 40 1007.7
20260504181320 24 283 4.8 12.9 0.00 0.00 0.00 42 1007.7
20260504180822 24 215 4.8 12.9 0.00 0.00 0.00 38 1007.9
20260504180548 24 313 4.8 12.9 0.00 0.00 0.00 39 1007.8
20260504175821 23 209 4.8 12.9 0.00 0.00 0.00 40 1007.9
20260504175321 23 308 4.8 12.9 0.00 0.00 0.00 39 1007.9
20260504174822 23 222 4.8 11.3 0.00 0.00 0.00 40 1007.9
20260504174318 23 195 3.2 11.3 0.00 0.00 0.00 44 1008.0
20260504173819 23 248 4.8 11.3 0.00 0.00 0.00 44 1007.9
20260504173319 23 205 6.4 14.5 0.00 0.00 0.00 46 1007.9
20260504172819 23 304 6.4 14.5 0.00 0.00 0.00 43 1007.9
20260504172319 22 211 6.4 12.9 0.00 0.00 0.00 45 1007.9
20260504172044 22 222 6.4 11.3 0.00 0.00 0.00 44 1007.9
20260504171318 22 222 6.4 11.3 0.00 0.00 0.00 44 1007.9
20260504170818 22 274 6.4 11.3 0.00 0.00 0.00 42 1007.9
20260504170320 22 236 4.8 11.3 0.00 0.00 0.00 45 1008.0
20260504160316 21 185 1.6 6.4 0.00 0.00 0.00 50 1007.9
20260504150816 17 358 0.0 3.2 0.00 0.00 0.00 58 1007.7
20260504150315 17 33 1.6 3.2 0.00 0.00 0.00 62 1007.7
20260504141304 12 56 1.6 3.2 0.00 0.00 0.00 79 1007.5
20260504140802 11 54 1.6 4.8 0.00 0.00 0.00 80 1007.4
20260504140303 11 46 1.6 4.8 0.00 0.00 0.00 81 1007.4
20260504130758 9 335 1.6 3.2 0.00 0.00 0.00 81 1006.8
20260504130258 9 335 0.0 1.6 0.00 0.00 0.00 81 1006.8
20260504120230 9 85 3.2 4.8 0.00 0.00 0.00 80 1007.1
20260504110213 10 81 1.6 4.8 0.00 0.00 0.00 79 1007.3
20260504100330 9 85 1.6 4.8 0.00 0.00 0.00 80 1007.5
20260504081452 11 74 1.6 3.2 0.00 0.00 0.00 76 1007.2
20260504080952 11 66 1.6 3.2 0.00 0.00 0.00 75 1007.2
20260504080453 11 79 3.2 4.8 0.00 0.00 0.00 75 1007.2